Weather History for KOLY - October, 2011

Change the Weather History Date:

Sunday, October 9, 2011

  Actual Average (KEVV) Record (KEVV)
Temperature  
Mean Temperature 65 °F 60 °F  
Max Temperature 84 °F 72 °F 89 °F (1939)
Min Temperature 46 °F 47 °F 29 °F (2000)
Degree Days  
Heating Degree Days 0 7  
Month to date heating degree days 51  
Since 1 July heating degree days 98  
Cooling Degree Days 0 1  
Month to date cooling degree days 16  
Year to date cooling degree days 1382  
Growing Degree Days 15 (Base 50)    
Moisture  
Dew Point 48 °F    
Average Humidity 62    
Maximum Humidity 100    
Minimum Humidity 22    
Precipitation  
Precipitation 0.00 in 0.09 in 2.51 in (1999)
Month to date precipitation 0.93  
Year to date precipitation 34.90  
Snow  
Snow 0.00 in 0.00 in 0.00 in (2002)
Month to date snowfall 0.0  
Since 1 July snowfall 0.0  
Since 1 September snowfall 0.0  
Snow Depth -    
Sea Level Pressure  
Sea Level Pressure 30.28 in    
Wind  
Wind Speed 2 mph (East)    
Max Wind Speed 10 mph    
Max Gust Speed -    
Visibility 8 miles    
Events Rain    
T = Trace of Precipitation, MM = Missing Value Source: NWS Daily Summary

Daily Weather History Graph

Daily Weather History Graph

Search for Another Location

Airport or City:

Trip Planner

Search our weather history database for the weather conditions in past years. The results will help you decide how hot, cold, wet, or windy it might be!

Date:

Astronomy

Oct. 09, 2011 Rise Set
Actual Time 6:55 AM CDT 6:23 PM CDT
Civil Twilight 6:29 AM CDT 6:50 PM CDT
Nautical Twilight 5:58 AM CDT 7:20 PM CDT
Astronomical Twilight 5:27 AM CDT 7:51 PM CDT
Moon 4:59 PM CDT (10/9) 4:41 AM CDT (10/9)
Length of Visible Light 12h 20m
Length of Day
11h 27m
Waxing Gibbous, 95% of the Moon is Illuminated
Oct 9
Waxing Gibbous
Oct 11
Full
Oct 19
Last Quarter
Oct 26
New
Nov 2
First Quarter

Hourly Weather History & Observations

Time (CDT) Temp. Dew Point Humidity Pressure Visibility Wind Dir Wind Speed Gust Speed Precip Events Conditions
12:15 AM 53.6 °F 48.2 °F 82% 30.29 in 10.0 mi East 3.5 mph - N/A   Clear
12:35 AM 53.6 °F 48.2 °F 82% 30.29 in 10.0 mi Calm Calm - N/A   Clear
12:55 AM 51.8 °F 48.2 °F 88% 30.30 in 10.0 mi Calm Calm - N/A   Clear
1:15 AM 51.8 °F 51.8 °F 100% 30.30 in 10.0 mi Calm Calm - N/A   Clear
1:35 AM 51.8 °F 50.0 °F 94% 30.30 in 10.0 mi Calm Calm - N/A   Clear
1:55 AM 51.8 °F 50.0 °F 94% 30.30 in 10.0 mi Calm Calm - N/A   Clear
2:15 AM 51.8 °F 51.8 °F 100% 30.30 in 10.0 mi Calm Calm - N/A   Clear
2:35 AM 48.2 °F 48.2 °F 100% 30.29 in 10.0 mi Calm Calm - N/A   Clear
2:55 AM 48.2 °F 48.2 °F 100% 30.30 in 10.0 mi Calm Calm - N/A   Clear
3:15 AM 50.0 °F 50.0 °F 100% 30.30 in 10.0 mi Calm Calm - N/A   Clear
3:35 AM 51.8 °F 51.8 °F 100% 30.29 in 10.0 mi Calm Calm - N/A   Clear
3:55 AM 48.2 °F 48.2 °F 100% 30.29 in 10.0 mi Calm Calm - N/A   Clear
4:15 AM 51.8 °F 48.2 °F 88% 30.30 in 10.0 mi Calm Calm - N/A   Clear
4:35 AM 46.4 °F 46.4 °F 100% 30.30 in 10.0 mi Calm Calm - N/A   Clear
4:55 AM 50.0 °F 48.2 °F 94% 30.30 in 10.0 mi Calm Calm - N/A   Clear
5:15 AM 48.2 °F 48.2 °F 100% 30.31 in 10.0 mi ENE 3.5 mph - N/A   Clear
5:35 AM 48.2 °F 48.2 °F 100% 30.31 in 10.0 mi Calm Calm - N/A   Clear
5:55 AM 48.2 °F 48.2 °F 100% 30.31 in 10.0 mi Calm Calm - N/A   Clear
6:15 AM 48.2 °F 48.2 °F 100% 30.31 in 7.0 mi ENE 3.5 mph - N/A   Clear
6:35 AM 48.2 °F 48.2 °F 100% 30.32 in 7.0 mi ENE 3.5 mph - N/A   Clear
6:55 AM 48.2 °F 48.2 °F 100% 30.32 in 7.0 mi ENE 3.5 mph - N/A   Clear
7:15 AM 48.2 °F 48.2 °F 100% 30.32 in 7.0 mi ENE 3.5 mph - N/A   Clear
7:35 AM 48.2 °F 48.2 °F 100% 30.32 in 7.0 mi ENE 3.5 mph - N/A   Clear
7:55 AM 53.6 °F 53.6 °F 100% 30.33 in 7.0 mi Calm Calm - N/A   Clear
8:15 AM 57.2 °F 53.6 °F 88% 30.33 in 10.0 mi Calm Calm - N/A   Clear
8:35 AM 60.8 °F 53.6 °F 77% 30.33 in 10.0 mi Calm Calm - N/A   Clear
8:55 AM 64.4 °F 51.8 °F 64% 30.34 in 10.0 mi East 3.5 mph - N/A   Clear
9:15 AM 64.4 °F 53.6 °F 68% 30.34 in 10.0 mi Calm Calm - N/A   Clear
9:35 AM 66.2 °F 53.6 °F 64% 30.34 in 10.0 mi Calm Calm - N/A   Clear
9:55 AM 71.6 °F 53.6 °F 53% 30.34 in 10.0 mi Calm Calm - N/A   Clear
10:15 AM 73.4 °F 53.6 °F 50% 30.33 in 10.0 mi Calm Calm - N/A   Clear
10:35 AM 75.2 °F 53.6 °F 47% 30.33 in 10.0 mi Calm Calm - N/A   Clear
10:55 AM 78.8 °F 53.6 °F 42% 30.32 in 10.0 mi Calm Calm - N/A   Clear
11:15 AM 78.8 °F 51.8 °F 39% 30.31 in 10.0 mi Calm Calm - N/A   Clear
11:35 AM 80.6 °F 50.0 °F 34% 30.31 in 10.0 mi Calm Calm - N/A   Clear
11:55 AM 82.4 °F 48.2 °F 30% 30.31 in 10.0 mi SE 3.5 mph - N/A   Clear
12:15 PM 82.4 °F 48.2 °F 30% 30.30 in 10.0 mi Calm Calm - N/A   Clear
12:35 PM 82.4 °F 46.4 °F 28% 30.29 in 10.0 mi Calm Calm - N/A   Clear
12:55 PM 82.4 °F 46.4 °F 28% 30.28 in 10.0 mi SE 6.9 mph - N/A   Clear
1:15 PM 84.2 °F 48.2 °F 29% 30.27 in 10.0 mi East 6.9 mph - N/A   Clear
1:35 PM 84.2 °F 46.4 °F 27% 30.26 in 7.0 mi SE 5.8 mph - N/A   Clear
1:55 PM 84.2 °F 46.4 °F 27% 30.25 in 10.0 mi ESE 6.9 mph - N/A   Clear
2:15 PM 84.2 °F 46.4 °F 27% 30.23 in 7.0 mi Calm Calm - N/A   Clear
2:35 PM 84.2 °F 44.6 °F 25% 30.23 in 7.0 mi ENE 6.9 mph - N/A   Clear
2:55 PM 84.2 °F 44.6 °F 25% 30.22 in 2.0 mi ENE 9.2 mph - N/A   Haze
3:15 PM 84.2 °F 42.8 °F 23% 30.22 in 0.2 mi East 10.4 mph - N/A   Haze
3:35 PM 84.2 °F 42.8 °F 23% 30.22 in 0.2 mi East 10.4 mph - N/A   Haze
3:55 PM 84.2 °F 42.8 °F 23% 30.21 in 0.2 mi East 9.2 mph - N/A   Haze
4:15 PM 84.2 °F 41.0 °F 22% 30.21 in 0.2 mi East 6.9 mph - N/A   Haze
4:35 PM 80.6 °F 42.8 °F 26% 30.21 in 0.2 mi East 8.1 mph - N/A   Haze
4:55 PM 82.4 °F 42.8 °F 25% 30.19 in 0.2 mi East 6.9 mph - N/A   Haze
5:15 PM 80.6 °F 42.8 °F 26% 30.19 in 0.5 mi East 6.9 mph - N/A Rain Rain
5:35 PM 80.6 °F 44.6 °F 28% 30.19 in 0.8 mi ENE 3.5 mph - N/A   Haze
5:55 PM 77.0 °F 44.6 °F 32% 30.19 in 0.8 mi East 5.8 mph - N/A   Haze
6:15 PM 73.4 °F 42.8 °F 33% 30.19 in 1.8 mi East 3.5 mph - N/A   Haze
6:35 PM 71.6 °F 44.6 °F 38% 30.19 in 2.5 mi ENE 3.5 mph - N/A   Haze
6:55 PM 69.8 °F 44.6 °F 40% 30.19 in 10.0 mi Calm Calm - N/A   Clear
7:15 PM 68.0 °F 46.4 °F 46% 30.19 in 7.0 mi ENE 3.5 mph - N/A   Clear
7:35 PM 66.2 °F 46.4 °F 49% 30.19 in 7.0 mi ENE 3.5 mph - N/A   Clear
7:55 PM 64.4 °F 48.2 °F 56% 30.19 in 7.0 mi ENE 3.5 mph - N/A   Clear
8:15 PM 64.4 °F 48.2 °F 56% 30.19 in 2.5 mi ESE 4.6 mph - N/A   Haze
8:35 PM 64.4 °F 48.2 °F 56% 30.19 in 4.0 mi East 3.5 mph - N/A   Haze
8:55 PM 64.4 °F 48.2 °F 56% 30.19 in 10.0 mi Calm Calm - N/A   Clear
9:15 PM 64.4 °F 48.2 °F 56% 30.20 in 10.0 mi ESE 3.5 mph - N/A   Clear
9:35 PM 62.6 °F 48.2 °F 59% 30.20 in 3.0 mi East 5.8 mph - N/A   Haze
9:55 PM 62.6 °F 51.8 °F 68% 30.20 in 1.8 mi ESE 6.9 mph - N/A   Haze
10:15 PM 64.4 °F 51.8 °F 64% 30.21 in 2.0 mi ESE 4.6 mph - N/A   Haze
10:35 PM 64.4 °F 51.8 °F 64% 30.21 in 3.0 mi ESE 4.6 mph - N/A   Haze
10:55 PM 62.6 °F 51.8 °F 68% 30.20 in 3.0 mi ESE 4.6 mph - N/A   Haze
11:15 PM 60.8 °F 51.8 °F 72% 30.20 in 4.0 mi East 4.6 mph - N/A   Haze
11:35 PM 60.8 °F 50.0 °F 68% 30.20 in 10.0 mi Calm Calm - N/A   Clear
11:55 PM 59.0 °F 50.0 °F 72% 30.19 in 10.0 mi East 3.5 mph - N/A   Clear